West Palm Beach, FL

5:27 AM EST on December 16, 2019 (GMT -0500)
Palm Beach International

Weather History for KPBI - November, 2019

Change the Weather History Date:

Sunday, November 17, 2019

  Actual Average Record
Temperature  
Mean Temperature 60 °F 72 °F  
Max Temperature 65 °F 80 °F 89 °F (2014)
Min Temperature 55 °F 65 °F 42 °F (1970)
Degree Days  
Heating Degree Days 5 0  
Month to date heating degree days 5 0  
Since 1 July heating degree days 5 1  
Cooling Degree Days 0 8  
Month to date cooling degree days 204 153  
Year to date cooling degree days 4434 3774  
Growing Degree Days 10 (Base 50)    
Moisture  
Dew Point 53 °F    
Average Humidity 79    
Maximum Humidity 86    
Minimum Humidity 72    
Precipitation  
Precipitation 0.00 in 0.16 in 1.86 in (1915)
Month to date precipitation 3.10 3.00  
Year to date precipitation 56.49 57.20  
Snow  
Snow 0.00 in - - ()
Month to date snowfall 0.0  
Since 1 July snowfall 0.0  
Since 1 September snowfall 0.0  
Snow Depth 0.00 in    
Sea Level Pressure  
Sea Level Pressure 29.88 in    
Wind  
Wind Speed 11 mph (NW)    
Max Wind Speed 16 mph    
Max Gust Speed 20 mph    
Visibility 10 miles    
Events      
T = Trace of Precipitation, MM = Missing Value Source: NWS Daily Summary

Daily Weather History Graph

Daily Weather History Graph

Search for Another Location

Airport or City:

Astronomy

Nov. 17, 2019 Rise Set
Actual Time 6:41 AM EST 5:29 PM EST
Civil Twilight 6:16 AM EST 5:53 PM EST
Nautical Twilight 5:48 AM EST 6:21 PM EST
Astronomical Twilight 5:20 AM EST 6:49 PM EST
Moon 10:10 PM EST (11/17) 11:17 AM EST (11/17)
Length of Visible Light 11h 37m
Length of Day
10h 48m
Waning Gibbous, 73% of the Moon is Illuminated
Nov 17
Waning Gibbous
Nov 19
Last Quarter
Nov 26
New
Dec 4
First Quarter
Dec 12
Full

Hourly Weather History & Observations

Time (EST) Temp. Dew Point Humidity Pressure Visibility Wind Dir Wind Speed Gust Speed Precip Events Conditions
12:09 AM 57.9 °F 52.0 °F 81% 29.89 in 10.0 mi NW 10.4 mph - N/A   Scattered Clouds
12:53 AM 57.0 °F 52.0 °F 83% 29.89 in 10.0 mi NW 9.2 mph - N/A   Partly Cloudy
1:53 AM 57.0 °F 51.1 °F 81% 29.87 in 10.0 mi WNW 9.2 mph - N/A   Partly Cloudy
2:53 AM 55.9 °F 51.1 °F 84% 29.86 in 10.0 mi WNW 9.2 mph - N/A   Scattered Clouds
3:53 AM 55.0 °F 51.1 °F 86% 29.86 in 10.0 mi WNW 8.1 mph - N/A   Partly Cloudy
4:05 AM 55.9 °F 51.1 °F 84% 29.87 in 10.0 mi WNW 10.4 mph - N/A   Mostly Cloudy
4:53 AM 57.0 °F 51.1 °F 81% 29.87 in 10.0 mi NW 15.0 mph - N/A   Overcast
5:53 AM 55.9 °F 51.1 °F 84% 29.89 in 10.0 mi NW 13.8 mph - N/A   Overcast
6:53 AM 55.9 °F 50.0 °F 80% 29.91 in 10.0 mi NW 12.7 mph - N/A   Overcast
7:32 AM 55.9 °F 50.0 °F 80% 29.92 in 10.0 mi NW 15.0 mph - N/A   Overcast
7:53 AM 55.9 °F 50.0 °F 80% 29.92 in 10.0 mi NW 9.2 mph - N/A   Overcast
8:53 AM 57.0 °F 51.1 °F 81% 29.93 in 10.0 mi NW 10.4 mph - N/A   Overcast
9:53 AM 59.0 °F 52.0 °F 78% 29.93 in 10.0 mi NW 12.7 mph - N/A   Overcast
10:53 AM 61.0 °F 53.1 °F 75% 29.91 in 10.0 mi NW 11.5 mph - N/A   Overcast
11:53 AM 62.1 °F 53.1 °F 72% 29.90 in 10.0 mi NW 13.8 mph - N/A   Overcast
12:53 PM 62.1 °F 53.1 °F 72% 29.87 in 10.0 mi NW 12.7 mph - N/A   Overcast
1:53 PM 63.0 °F 54.0 °F 72% 29.85 in 10.0 mi NNW 15.0 mph - N/A   Overcast
2:53 PM 64.0 °F 55.0 °F 73% 29.83 in 10.0 mi NW 13.8 mph - N/A   Overcast
3:53 PM 64.0 °F 55.0 °F 73% 29.83 in 10.0 mi NNW 10.4 mph - N/A   Overcast
4:53 PM 64.0 °F 55.0 °F 73% 29.84 in 10.0 mi NW 9.2 mph - N/A   Overcast
5:53 PM 64.0 °F 55.0 °F 73% 29.85 in 10.0 mi NNW 9.2 mph - N/A   Overcast
6:53 PM 62.1 °F 55.0 °F 78% 29.87 in 10.0 mi NW 10.4 mph - N/A   Overcast
7:53 PM 61.0 °F 54.0 °F 78% 29.88 in 10.0 mi Variable 4.6 mph - N/A   Overcast
7:55 PM 61.0 °F 54.0 °F 78% 29.88 in 10.0 mi NNW 9.2 mph - N/A   Overcast
8:53 PM 59.0 °F 53.1 °F 81% 29.89 in 10.0 mi West 9.2 mph - N/A   Overcast
9:53 PM 59.0 °F 53.1 °F 81% 29.88 in 10.0 mi West 6.9 mph - N/A   Overcast
10:53 PM 57.9 °F 53.1 °F 84% 29.88 in 10.0 mi West 10.4 mph - N/A   Overcast
11:53 PM 57.9 °F 54.0 °F 87% 29.87 in 10.0 mi West 5.8 mph - N/A   Overcast